User: anonymous   Login
Location: Unspecified
(0.0000°N, 0.0000°E)
Time: 21:24:29
(UTC+00:00)
Language:

Altair - Orbit

View from above orbital plane
View from above orbital plane
View from above satellite
View from above satellite

Ground track
Ground track

The orbit data is extracted from the following two-line orbital elements,

1    50U 60009B   16043.89503903 -.00000117 +00000-0 -31105-3 0  9995
2    50 047.2337 005.3567 0114338 277.5202 081.2611 12.20095519476510
Epoch (UTC): 12 February 2016 21:28:51
Eccentricity: 0.0114338
inclination: 47.2337°
perigee height: 1501 km
apogee height: 1683 km
right ascension of ascending node: 5.3567°
argument of perigee: 277.5202°
revolutions per day: 12.20095519
mean anomaly at epoch: 81.2611°
orbit number at epoch: 47651

The dashed part of the orbit path shows where the satellite is in the earth's shadow,  

DLR